Vorticity
8 8 6 12 -2 11 9 -0 -6 -5 11 6 9 7 9 -10 0 -4 6 7 7 7 7 1 12 6 13 2 9 15 1 48 -1 45 -22 1 1 2 5 7 3 7 14 13
8 10 8 5 5 18 18 0 -1 9 4 3 9 15 -3 20 7 6 1 5 6 7 4 6 7 5 12 7 17 10 7 14 35 34 4 9 2 5 10 6 5 1 9 8
8 13 2 -2 10 6 6 5 2 9 -3 1 5 8 14 11 -6 0 18 3 7 6 6 6 4 8 13 0 24 4 14 5 10 13 11 -6 6 6 11 5 2 -4 7 13
5 -8 7 13 8 8 9 19 9 4 6 1 14 -2 5 27 -6 6 3 -0 8 8 6 8 5 8 2 8 21 13 7 0 -0 5 -2 6 12 15 8 8 2 1 9 15
12 9 0 7 8 7 2 3 4 4 5 7 7 6 12 15 6 28 -1 -7 10 7 7 9 7 6 4 10 15 12 15 10 4 5 6 5 16 8 7 5 4 7 11 12
-2 9 11 9 7 8 6 7 5 9 11 13 9 5 13 2 10 -30 -31 8 10 9 10 8 9 4 4 7 10 14 8 18 8 4 14 18 8 5 6 6 7 8 11 12
10 7 9 11 9 9 8 8 10 12 -3 15 23 11 -5 -5 -16 9 19 3 14 14 10 9 7 4 5 5 6 13 16 15 10 15 16 5 8 4 7 8 10 8 16 8
11 14 6 11 8 5 10 8 2 7 -1 -16 1 10 62 -1 -3 13 15 12 12 11 9 7 6 6 7 7 9 6 23 11 12 9 6 9 4 1 4 5 9 8 19 10
12 5 12 13 15 9 12 14 8 15 1 -0 6 15 -34 19 45 2 20 16 12 9 10 10 10 8 5 8 13 13 19 12 13 6 1 -5 -2 5 3 2 9 6 18 12
-12 4 17 11 14 8 8 4 9 17 17 16 18 6 2 26 42 -19 -2 6 7 10 9 10 9 6 9 7 9 23 17 14 10 3 1 1 5 7 4 4 6 9 18 10
-0 -1 -2 6 8 6 18 11 5 9 -1 1 7 7 -2 -13 -3 38 -3 12 5 7 4 9 10 0 3 10 15 20 25 19 6 4 5 6 7 5 8 5 6 12 15 12
12 6 12 -2 15 19 31 8 17 16 9 23 9 1 -9 14 59 -21 -11 7 7 9 6 8 6 6 4 8 8 29 18 25 10 6 6 6 5 5 8 5 6 13 9 13
7 17 -6 10 2 7 -7 25 11 4 3 11 -5 5 -62 14 15 4 -12 14 11 7 8 8 -2 4 12 15 15 33 13 24 18 6 5 3 4 7 7 7 6 10 9 7
-4 -1 7 0 21 -1 -2 13 27 9 5 6 16 14 13 12 -33 -3 6 16 9 4 8 9 5 3 6 15 11 118 5 26 6 7 6 8 10 13 8 6 8 8 13 11
9 5 3 5 -13 4 20 29 1 13 18 15 4 9 -7 -4 -22 53 -20 2 6 6 6 11 3 1 5 4 17 6 15 13 13 14 16 14 13 10 9 7 10 6 11 9
2 10 5 6 21 2 -2 -1 2 -10 3 11 14 10 9 17 62 35 -3 3 21 2 4 12 5 4 4 2 14 1 7 4 6 7 7 6 7 7 12 12 8 8 5 9
11 -3 7 9 22 -2 8 13 11 7 20 6 1 10 13 28 -27 -60 6 3 6 17 11 8 9 4 7 12 3 10 11 7 5 6 3 4 7 7 5 13 10 11 10 5
6 2 12 14 8 10 25 5 9 3 10 6 11 -2 18 23 29 -5 -2 2 8 17 16 9 8 7 4 2 4 0 8 12 13 7 5 7 1 11 4 10 8 13 1 11
10 3 14 6 5 11 0 8 -20 45 5 20 -11 -10 18 -2 16 16 8 7 7 11 10 10 12 13 2 -1 5 6 8 5 8 9 12 5 13 5 12 9 6 12 9 10
10 10 8 10 5 7 9 3 5 -5 22 13 27 4 -15 20 -22 38 11 1 3 5 5 8 11 13 6 9 -1 2 12 7 6 2 3 4 17 6 8 7 9 5 5 5
8 10 8 10 9 7 10 -13 31 31 -12 2 7 16 22 4 -8 5 11 7 6 5 6 15 13 12 5 7 7 5 3 14 8 10 3 13 9 21 2 10 4 7 8 7
33 15 8 10 7 8 9 7 4 -28 -5 -2 10 11 7 6 12 19 13 12 11 12 11 15 16 14 5 4 -2 6 11 17 15 27 20 4 1 8 43 -4 8 5 4 8
-15 15 13 11 18 14 8 4 8 7 10 24 10 4 11 10 10 10 10 10 13 15 11 15 16 15 14 5 6 12 6 9 14 -4 -5 6 -2 14 18 60 -12 -11 5 4
22 10 3 10 22 21 12 7 6 8 10 9 6 5 8 2 7 6 7 10 12 14 15 16 15 11 12 12 12 3 19 -4 -19 -6 4 7 14 16 17 5 0 1 5 9
9 -3 7 10 3 9 6 6 7 6 7 8 8 9 10 8 7 10 12 8 11 11 12 12 8 12 8 9 6 7 16 4 5 9 7 8 19 16 13 8 9 11 9 5
13 -15 56 2 14 7 -1 46 13 9 8 8 7 8 8 9 9 8 8 10 8 6 8 10 10 8 11 5 16 13 9 9 4 9 6 8 9 4 10 0 2 7 9 11
Height
5920 5922 5924 5927 5931 5930 5932 5933 5935 5936 5935 5934 5934 5934 5934 5928 5927 5923 5922 5920 5917 5914 5912 5909 5906 5902 5898 5894 5892 5886 5877 5873 5875 5867 5869 5873 5875 5881 5882 5880 5881 5881 5880 5878
5919 5921 5922 5925 5924 5927 5929 5932 5933 5934 5932 5932 5931 5931 5933 5931 5926 5925 5919 5919 5915 5914 5910 5908 5905 5901 5897 5893 5889 5887 5879 5879 5871 5868 5870 5862 5872 5878 5882 5877 5877 5876 5874 5874
5916 5919 5917 5921 5922 5924 5926 5928 5930 5932 5931 5930 5928 5929 5929 5927 5923 5923 5920 5914 5914 5911 5910 5907 5904 5900 5896 5893 5888 5887 5883 5880 5877 5874 5872 5863 5869 5875 5875 5875 5876 5875 5873 5870
5913 5914 5915 5918 5919 5922 5924 5925 5925 5926 5927 5928 5929 5929 5927 5925 5923 5916 5916 5915 5908 5910 5907 5905 5902 5899 5895 5892 5889 5887 5885 5881 5881 5876 5870 5872 5874 5874 5874 5874 5872 5871 5868 5867
5911 5912 5912 5915 5917 5918 5921 5919 5922 5923 5924 5925 5926 5928 5924 5922 5922 5915 5910 5908 5910 5907 5905 5904 5901 5897 5894 5891 5888 5885 5883 5883 5880 5877 5876 5874 5874 5874 5872 5871 5870 5869 5865 5862
5906 5906 5910 5912 5913 5916 5918 5919 5920 5921 5922 5923 5925 5927 5927 5917 5917 5917 5909 5910 5908 5904 5903 5902 5899 5896 5892 5890 5886 5883 5880 5878 5876 5875 5873 5872 5873 5872 5872 5869 5867 5865 5862 5859
5903 5905 5906 5909 5911 5913 5915 5916 5918 5920 5920 5918 5914 5919 5922 5916 5910 5913 5910 5905 5905 5902 5901 5899 5897 5894 5891 5888 5885 5881 5878 5876 5875 5873 5873 5873 5873 5871 5870 5868 5866 5863 5860 5858
5900 5903 5904 5906 5908 5910 5911 5913 5916 5917 5919 5915 5914 5916 5907 5914 5909 5906 5907 5903 5901 5898 5897 5896 5894 5892 5889 5886 5883 5880 5877 5876 5875 5874 5874 5873 5872 5872 5870 5867 5864 5862 5860 5859
5902 5904 5901 5901 5904 5907 5908 5910 5913 5912 5913 5914 5917 5916 5910 5904 5906 5899 5901 5899 5897 5895 5894 5893 5892 5890 5887 5884 5880 5879 5876 5875 5874 5873 5873 5873 5872 5870 5867 5866 5864 5861 5861 5858
5896 5898 5898 5898 5901 5903 5904 5907 5909 5909 5909 5909 5912 5905 5903 5898 5897 5896 5898 5896 5894 5892 5891 5890 5888 5886 5884 5881 5876 5874 5872 5873 5873 5872 5871 5871 5870 5868 5867 5865 5863 5863 5861 5858
5890 5893 5899 5894 5897 5898 5900 5903 5903 5905 5905 5906 5907 5906 5899 5898 5897 5893 5893 5892 5892 5890 5888 5887 5885 5882 5880 5876 5872 5869 5867 5868 5870 5870 5870 5870 5868 5867 5866 5865 5864 5863 5861 5859
5884 5887 5890 5894 5894 5895 5896 5900 5899 5899 5902 5902 5903 5900 5887 5893 5892 5892 5885 5889 5888 5886 5886 5885 5883 5880 5877 5872 5866 5865 5864 5864 5867 5869 5869 5868 5866 5865 5865 5866 5865 5863 5862 5860
5878 5881 5884 5887 5891 5893 5891 5893 5893 5894 5894 5896 5895 5895 5888 5882 5883 5891 5885 5887 5884 5882 5883 5881 5880 5878 5873 5866 5861 5846 5857 5860 5864 5867 5866 5866 5864 5864 5866 5865 5864 5863 5862 5861
5872 5876 5878 5883 5886 5886 5884 5887 5888 5889 5889 5890 5893 5889 5876 5875 5877 5878 5890 5886 5879 5879 5879 5879 5878 5876 5873 5866 5860 5832 5851 5859 5864 5864 5864 5864 5863 5863 5864 5863 5863 5862 5862 5860
5868 5869 5873 5876 5878 5882 5880 5879 5879 5884 5885 5884 5887 5884 5883 5874 5859 5851 5884 5884 5877 5876 5876 5876 5876 5874 5873 5867 5864 5860 5860 5862 5862 5861 5862 5862 5861 5862 5861 5862 5861 5861 5860 5859
5861 5864 5866 5868 5871 5876 5879 5881 5881 5881 5881 5883 5880 5880 5867 5867 5869 5859 5878 5874 5876 5877 5873 5874 5873 5873 5871 5870 5866 5863 5863 5863 5862 5861 5861 5860 5859 5860 5860 5860 5860 5859 5858 5856
5855 5857 5860 5864 5866 5868 5872 5876 5876 5876 5877 5877 5877 5869 5859 5861 5861 5864 5871 5873 5874 5873 5870 5870 5871 5870 5869 5868 5867 5866 5864 5863 5861 5860 5859 5859 5860 5860 5860 5857 5857 5856 5855 5854
5847 5851 5854 5856 5857 5859 5867 5868 5863 5868 5872 5871 5874 5874 5846 5838 5849 5861 5867 5867 5868 5868 5866 5867 5868 5868 5866 5865 5864 5864 5863 5861 5860 5859 5858 5858 5858 5857 5857 5854 5854 5853 5852 5851
5840 5844 5846 5847 5850 5855 5860 5858 5855 5859 5864 5865 5865 5867 5858 5853 5855 5858 5863 5863 5860 5862 5863 5864 5863 5864 5862 5862 5862 5861 5860 5859 5858 5856 5855 5855 5854 5853 5852 5851 5849 5849 5849 5847
5832 5835 5838 5842 5843 5846 5854 5853 5848 5850 5855 5855 5854 5852 5847 5806 5847 5851 5860 5859 5856 5856 5859 5860 5858 5859 5858 5858 5858 5858 5855 5854 5854 5853 5851 5850 5849 5848 5847 5848 5846 5844 5843 5842
5823 5826 5830 5834 5835 5839 5843 5845 5838 5841 5847 5846 5845 5846 5846 5846 5843 5848 5853 5853 5850 5851 5854 5854 5852 5853 5853 5854 5854 5854 5853 5851 5850 5848 5846 5845 5845 5843 5842 5842 5841 5839 5838 5837
5813 5818 5821 5826 5827 5830 5835 5835 5836 5835 5841 5841 5842 5843 5844 5846 5846 5845 5846 5845 5845 5845 5847 5847 5845 5845 5846 5848 5850 5850 5848 5847 5845 5842 5841 5840 5839 5838 5835 5835 5835 5834 5833 5830
5808 5809 5813 5817 5821 5821 5819 5824 5827 5828 5835 5834 5837 5839 5839 5840 5840 5840 5840 5839 5839 5840 5840 5841 5840 5840 5841 5843 5844 5843 5842 5843 5841 5839 5838 5835 5834 5831 5830 5827 5827 5826 5826 5825
5798 5802 5805 5810 5810 5808 5810 5815 5818 5821 5826 5827 5828 5828 5831 5834 5833 5834 5834 5833 5833 5833 5833 5834 5835 5834 5835 5836 5837 5837 5837 5836 5835 5834 5831 5830 5828 5826 5824 5823 5823 5821 5820 5818
5785 5793 5797 5802 5802 5804 5798 5804 5812 5814 5816 5818 5819 5819 5820 5825 5826 5826 5827 5827 5827 5827 5827 5828 5828 5828 5829 5829 5829 5829 5829 5828 5828 5827 5825 5823 5821 5820 5819 5819 5817 5815 5813 5811
5779 5784 5784 5788 5788 5790 5794 5771 5800 5803 5808 5809 5811 5812 5813 5814 5817 5818 5819 5820 5820 5820 5821 5821 5821 5822 5822 5822 5822 5822 5823 5822 5821 5820 5819 5817 5816 5815 5814 5813 5811 5809 5807 5804